Reflectivity
-20 -20 -20 -20 -20 -20 -20 -20 -20 -20 -20 -20 -20 -20 -20 -20 -20 -20 -9 -20 -19 -20 -20 -15 12 14 15 12 -4 2 11 15 16 16 15 17 15 7 -20 -20 -20 -20 -20 -20 -20 -20 -20 -20 -20
-20 -20 -20 -20 -20 -20 -20 -20 -20 -20 -20 -20 -20 -20 -20 -20 -20 -20 8 3 -20 -16 11 11 13 15 15 13 11 10 9 14 17 15 -1 -7 -20 -20 -20 -20 -20 -20 -20 -20 -20 -20 -20 -20 -20
-20 -20 -20 -20 -20 -20 -20 -20 -20 -20 -20 -20 -20 -20 -20 -20 -20 -11 -20 -14 -20 -7 -6 4 12 14 12 13 10 12 13 12 -6 -20 -20 -20 -20 -20 -20 -20 -20 -20 -20 -20 -20 -20 -20 -20 -20
-20 -20 -20 -20 -20 -20 -20 -20 -20 -20 -20 -20 -20 -20 -20 -20 -20 -20 -20 -20 -20 -20 -14 9 13 14 11 11 14 15 6 -20 -20 -20 -20 -20 -20 -20 -20 -20 -20 -20 -20 -20 -20 -20 -20 -20 -20
-20 -20 -20 -20 -20 -20 -20 -20 -20 -20 -20 -20 -20 -20 -20 -20 -20 -20 -20 -20 -0 3 -12 -6 11 15 15 16 14 -20 -20 -20 -20 -20 -20 -20 -20 -20 -20 -20 -20 -20 -20 -20 -20 -20 -20 -20 -20
-20 -20 -20 -20 -20 -20 -20 -20 -20 -20 -20 -20 -20 -11 -20 -20 -20 -20 -20 -20 -20 9 -20 -19 1 5 5 -20 -20 -20 -20 -20 -20 -20 -18 -19 -19 -20 -20 -20 -20 -20 -20 -20 -20 -20 -20 -20 -20
-20 -20 -20 -20 -20 -20 -20 -20 -20 -20 -20 -20 -20 -20 -20 -18 -20 -20 -20 -11 -20 -5 -2 -20 -20 -12 -20 -20 -20 -20 -20 -20 -8 -20 -20 -20 -20 -20 -20 -20 -20 -20 -20 -20 -20 -20 -20 -20 -20
-20 -20 -20 -20 -20 -20 -20 -20 -20 -20 -20 -20 -20 -20 -20 -20 -20 -20 -20 -20 -20 -20 -2 -20 -20 -20 -20 -20 -20 -20 -20 -20 -20 -20 -20 -20 -20 -20 -20 -20 -20 -20 -20 -20 -20 -20 -20 -20 -20
-20 -20 -20 -20 -20 -20 -20 -20 -20 -20 -20 -20 -20 -20 -20 -20 -20 -20 -20 -20 -20 -20 -20 -20 -20 -20 -20 -20 -20 -20 -20 -20 -20 -20 -20 -20 -20 -20 -20 -20 -20 -20 -20 -20 -20 -20 -20 -20 -20
-20 -20 -20 -20 -20 -20 -20 -20 -20 -20 -20 -20 -20 -20 -20 -20 -20 -20 -20 -20 -20 -20 -20 -20 -20 -20 -20 -20 -20 -20 -20 -20 -20 -20 -20 -20 -20 -20 -20 -20 -20 -20 -20 -20 -20 -20 -20 -20 -20
-20 -20 -20 -20 -20 -20 -20 -20 -20 -20 -20 -20 -20 -20 -20 -20 -20 -20 -20 -20 -20 -20 -20 -20 -20 -20 -20 -20 -20 -20 -20 -20 -20 -20 -20 -20 -20 -20 -20 -20 -20 -20 -20 -20 -20 -20 -20 -20 -20
-20 -20 -20 -20 -20 -20 -20 -20 -20 -20 -20 -20 -20 -20 -20 -20 -20 -20 -20 -20 -20 -20 -20 -20 -20 -20 -20 -20 -20 -20 -20 -20 -20 -20 -20 -20 -20 -20 -20 -20 -20 -20 -20 -20 -20 -20 -20 -20 -20
-20 -20 -20 -20 -20 -20 -20 -20 -20 -20 -20 -20 -20 -20 -20 -20 -20 -20 -20 -20 -20 -20 -20 -20 -20 -20 -20 -20 -20 -20 -20 -20 -20 -20 -20 -20 -20 -20 -20 -20 -20 -20 -20 -20 -20 -20 -20 -20 -20
-20 -20 -20 -20 -20 -20 -20 -20 -20 -20 -20 -20 -20 -20 -20 -20 -20 -20 -20 -20 -20 -20 -20 -20 -20 -20 -20 -20 -20 -20 -20 -20 -20 -20 -20 -20 -20 -20 -20 -20 -20 -20 -20 -20 -20 -20 -20 -20 -20
-20 -20 -20 -20 -20 -20 -20 -20 -20 -20 -20 -20 -20 -20 -20 -20 -20 -20 -20 -20 -20 -20 -20 -20 -20 -20 -20 -20 -20 -20 -20 -20 -20 -20 -20 -20 -20 -20 -20 -20 -20 -20 -20 -20 -20 -20 -20 -20 -20
-20 -20 -20 -20 -20 -20 -20 -20 -20 -20 -20 -20 -20 -20 -20 -20 -20 -20 -20 -20 -20 -20 -20 -20 -20 -20 -20 -20 -20 -20 -20 -20 -20 -20 -20 -20 -20 -18 -4 -19 -20 -20 -20 -20 -20 -20 -20 -20 -20
-20 -20 -20 -20 -20 -20 -20 -20 -20 -20 -20 -20 -20 -20 -20 -20 -20 -20 -20 -20 -20 -20 -20 -20 -20 -20 -20 -20 -20 -20 -20 -20 -20 -20 -20 -20 -20 -20 -20 -20 -20 -20 -20 -20 -20 -20 -20 -20 -20
-20 -20 -20 -20 -20 -20 -20 -20 -20 -20 -20 -20 -20 -20 -20 -20 -20 -20 -20 -20 -20 -20 -20 -20 -20 -20 -20 -20 -20 -20 -20 -20 -20 -20 -20 -20 -20 -20 -20 -20 -20 -20 -20 -20 -20 -20 -20 -20 -20
-20 -20 -20 -20 -20 -20 -20 -20 -20 -20 -20 -20 -20 -20 -20 -20 -20 -20 -20 -20 -20 -20 -20 -20 -20 -20 -20 -20 -20 -20 -20 -20 -20 -20 -20 -20 -20 -20 -20 -20 -20 -20 -20 -20 -20 -20 -20 -20 -20
-20 -20 -20 -20 -20 -20 -20 -20 -20 -20 -20 -20 -20 -20 -20 -20 -20 -20 -20 -20 -15 -15 -9 -12 -20 -20 -20 -20 -20 -20 -20 -20 -20 -10 -20 -20 -20 -20 -20 -20 -20 -20 -20 -20 -20 -20 -20 -20 -20
-20 -20 -20 -20 -20 -20 -20 -20 -20 -20 -20 -20 -20 -20 -20 -20 -20 -20 -20 -20 -15 3 14 20 10 3 -20 -20 -20 -8 5 7 2 -20 -18 -20 -20 -20 -20 -20 -20 -20 -20 -20 -20 -20 -20 -20 -20
-20 -20 -20 -20 -20 -20 -20 -20 -20 -20 -20 -20 -20 -20 -20 -20 -20 -20 -20 -20 -20 -14 12 25 13 12 -15 -20 1 -13 -11 9 -0 -4 -12 -18 -20 -20 -20 -20 -20 -20 -20 -20 -20 -20 -20 -20 -20
-20 -20 -20 -20 -20 -16 -20 0 -20 -20 -20 -20 -20 -20 -20 -20 -20 -20 -20 -20 -20 -20 -12 17 24 -9 27 16 15 11 -20 -20 -20 -20 -20 -20 -20 -20 -20 -20 -20 -20 -20 -20 -20 -20 -20 -20 -20
-20 -20 -20 -20 -20 -9 -20 -20 -20 -20 -20 -20 -20 -20 -20 -20 -20 -20 -20 -20 -20 -20 -17 4 22 21 3 5 8 -18 5 13 -9 -20 -20 -20 -20 -20 -20 -20 -20 -20 -20 -20 -20 -20 -20 -20 -20
-20 -20 3 -14 8 -9 -20 -9 -20 -20 -20 -20 -20 -20 -20 -20 -20 -20 -20 -20 -20 -20 -20 -20 -9 -5 2 -12 17 12 -19 -20 -20 -20 -20 -20 -20 -20 -20 -20 -20 -20 -20 -20 -20 -20 -20 -20 -20
-20 -20 -2 -15 -17 -20 -20 -20 -20 -20 -20 -20 -20 -20 -20 -20 -20 -20 -20 -20 -20 -20 -20 -20 -20 -15 12 13 4 1 14 -4 -19 2 5 -20 -20 -20 -20 -20 -20 -20 -20 -20 -20 -20 -20 -20 -20
-20 -20 -14 8 7 -5 -20 -20 -20 -20 -20 -20 -20 -20 -20 -20 -20 -20 -20 -20 -20 -20 -20 -20 -8 23 30 26 24 4 19 15 14 13 -14 -16 -20 -20 -20 -20 -20 -20 -20 -20 -20 -20 -20 -20 -20
-20 -20 -20 22 20 16 -3 -20 -20 -20 -20 -20 -20 -20 -20 -20 -20 -20 -20 -20 -20 -20 -20 -20 -17 14 26 27 32 20 17 5 -11 -16 -20 -19 -20 -20 -20 -20 -20 -20 -20 -20 -20 -20 -20 -20 -20
-20 -20 -19 -15 14 -20 -20 -20 -20 -20 -20 -20 -20 -20 -20 -20 -20 -20 -20 -20 -20 -20 -20 -20 4 25 34 -5 8 3 -18 -18 -20 -20 -20 -15 -20 -20 -20 -20 -20 -20 -20 -20 -20 -20 -20 -20 -20
-8 6 14 19 15 20 9 -12 -20 -20 7 -17 -20 -17 -20 -20 -20 -20 -20 5 14 -20 -20 -17 35 28 -4 -5 2 -20 -20 -20 -13 -16 -19 -20 -20 -20 -20 -20 -20 -20 -20 -20 -20 -20 -20 -20 -20
Wind_Speed
4 6 2 4 4 5 4 8 3 8 5 2 4 2 1 5 4 5 1 4 11 9 6 9 11 12 15 17 17 15 15 16 16 18 18 18 18 18 17 16 14 14 13 14 14 14 14 15 14
5 5 4 3 5 0 6 5 8 7 1 1 5 2 6 1 2 4 5 6 11 10 7 9 13 12 15 16 16 16 16 16 17 18 18 18 18 17 16 16 14 14 14 14 14 14 15 15 15
5 2 4 4 3 7 6 6 7 2 9 5 3 6 2 4 3 9 6 10 10 8 9 11 13 13 16 16 16 16 16 17 17 17 18 18 17 17 16 15 14 14 14 14 15 15 15 15 15
3 4 4 3 10 7 6 8 6 14 2 3 4 3 2 5 9 6 12 12 10 9 10 12 13 12 15 16 15 16 16 16 17 17 17 17 17 16 15 15 14 14 14 15 15 15 15 15 15
4 3 1 3 8 5 8 11 5 15 6 8 7 5 2 2 6 13 13 11 12 8 9 10 12 12 14 15 16 16 16 16 17 18 18 16 15 15 14 15 15 15 14 14 14 14 15 15 15
3 3 1 6 8 5 8 7 6 16 13 6 6 7 6 2 14 12 12 11 10 10 9 10 13 14 15 16 17 16 15 15 15 15 15 18 15 15 15 15 15 14 14 14 15 16 16 15 15
6 4 5 5 5 8 7 2 6 10 6 7 13 6 3 12 12 13 11 10 10 8 8 6 6 10 13 14 16 16 16 16 15 15 15 16 15 15 15 15 15 15 15 15 16 16 15 15 15
5 4 4 5 4 13 5 5 8 5 3 6 8 8 7 17 15 12 12 11 8 7 6 6 6 5 4 4 13 14 15 14 15 14 14 13 14 14 14 13 15 14 15 14 15 15 14 15 15
5 1 5 6 5 11 11 5 1 2 5 3 2 6 5 22 19 14 13 10 9 7 7 7 7 7 6 6 9 13 15 13 12 12 12 9 5 6 7 15 15 15 15 15 15 15 15 14 14
5 4 9 7 5 10 15 5 2 1 1 1 3 4 19 20 19 18 18 16 15 14 12 11 10 8 7 6 6 5 8 5 5 6 7 5 6 6 8 12 14 15 14 14 14 15 15 11 4
5 7 5 8 12 13 16 8 7 7 6 9 11 17 20 20 18 16 15 16 19 16 11 9 9 7 6 5 4 3 3 4 4 7 6 6 5 5 4 4 4 4 10 4 6 6 5 7 5
5 8 9 6 9 6 6 5 5 10 13 12 14 22 23 22 22 22 20 17 15 14 13 11 8 7 5 4 4 5 5 4 4 5 7 5 4 5 4 4 4 4 4 5 5 4 5 6 6
6 6 10 8 8 7 12 10 9 10 6 7 20 20 23 22 19 15 14 13 14 15 13 12 9 8 6 6 4 3 4 4 5 5 6 5 5 5 4 4 4 4 3 4 4 4 4 5 6
5 9 16 9 6 5 8 11 5 3 7 11 19 21 19 20 19 14 14 15 16 15 15 13 13 9 8 6 6 4 4 5 4 4 5 7 6 5 5 5 4 4 4 3 3 3 3 3 4
7 7 11 8 6 8 7 7 11 6 9 14 15 17 17 19 16 23 20 17 16 14 13 14 13 9 9 9 8 5 4 4 5 4 5 6 6 6 6 4 4 4 3 4 4 2 2 3 3
9 4 8 2 5 7 10 11 13 9 12 13 14 15 18 20 25 17 15 16 16 15 16 14 12 12 11 11 8 5 5 4 4 4 4 6 7 7 6 5 4 4 4 2 2 3 3 4 5
5 11 9 12 9 6 8 7 13 11 14 14 14 16 18 16 16 18 18 18 17 16 17 15 13 14 13 12 8 7 7 5 4 4 4 6 6 7 6 4 4 4 3 2 2 4 4 4 3
4 6 7 7 3 2 8 10 12 8 12 17 16 15 15 18 26 21 18 16 16 16 17 16 13 14 13 10 9 6 5 4 4 4 5 7 5 7 6 5 5 4 3 3 3 4 4 3 2
8 14 12 6 12 8 15 19 13 19 11 11 13 15 17 21 23 17 15 16 16 17 18 17 16 15 13 10 10 6 6 4 3 3 6 6 5 6 6 4 5 3 4 3 2 2 6 6 4
15 17 17 13 13 14 12 21 10 10 11 11 20 18 20 19 14 19 19 19 20 20 19 18 17 16 13 11 8 5 7 3 3 3 5 6 6 6 6 6 5 5 4 5 5 4 2 3 4
17 18 13 18 11 18 10 31 16 8 16 11 7 18 22 25 21 20 22 25 21 23 23 22 20 19 15 14 10 8 7 5 3 3 3 3 5 5 6 6 5 5 4 4 3 3 4 3 4
25 11 15 13 9 13 7 23 25 6 14 10 10 12 18 19 18 18 19 20 23 22 20 22 23 20 15 16 13 18 10 10 4 3 4 4 6 6 6 6 5 5 4 5 4 3 3 3 3
20 7 8 6 11 14 17 10 30 8 10 9 11 11 17 17 19 20 24 27 24 21 20 18 19 20 21 21 18 14 11 4 7 5 7 5 5 6 6 6 5 5 4 5 6 5 5 2 3
8 4 7 8 4 11 14 11 28 6 12 9 7 9 14 16 20 23 21 17 17 17 19 19 19 16 15 12 14 16 16 13 10 7 6 4 3 4 6 6 5 5 5 5 5 5 6 5 5
5 6 2 5 7 13 12 11 24 3 1 3 9 10 10 8 16 18 21 21 22 23 22 19 21 18 15 13 15 11 13 14 15 13 8 9 4 3 5 5 5 3 5 5 6 6 6 4 4
22 15 9 10 8 7 8 11 10 5 7 8 7 6 7 8 10 14 18 19 20 22 20 20 21 17 17 17 14 12 15 10 10 11 9 7 6 5 6 5 5 6 7 5 6 6 5 5 5
6 14 28 9 1 2 6 5 2 6 14 14 13 9 10 11 5 10 12 14 16 19 20 20 19 16 15 14 14 14 14 15 13 13 10 6 6 6 6 6 6 6 7 6 6 5 5 5 4
11 4 4 4 8 12 7 4 6 6 7 10 14 13 7 7 7 6 7 11 12 11 14 16 17 21 21 17 13 12 12 13 12 12 12 11 8 7 8 7 7 7 7 6 7 5 5 7 4
2 5 3 2 4 5 3 5 4 1 4 9 13 13 12 5 5 2 5 9 10 8 11 14 16 17 14 13 13 14 12 13 14 12 12 12 11 10 9 9 8 8 8 7 7 7 6 7 7
4 5 3 5 6 4 2 4 4 2 5 9 8 9 11 11 5 3 4 4 5 10 14 13 12 15 16 15 13 14 14 13 14 13 13 12 11 9 9 9 8 8 8 7 8 7 7 7 7
Wind_Direction
141 140 108 45 49 61 266 258 268 287 282 329 311 67 92 40 156 202 138 148 123 125 130 141 120 116 118 124 121 110 102 101 101 98 96 95 93 92 89 83 79 76 70 64 58 51 44 38 31
138 115 42 80 103 266 263 252 236 239 221 34 66 31 27 156 93 126 137 147 125 121 106 113 108 115 116 111 108 109 112 111 108 107 105 102 99 95 89 87 80 73 66 60 55 49 44 38 32
154 117 105 138 160 199 228 240 246 154 139 198 93 33 116 179 128 150 137 124 111 108 107 112 111 117 115 113 115 120 122 120 113 108 105 102 98 94 90 87 81 74 65 56 52 49 46 45 39
143 18 30 124 238 240 222 246 295 312 234 158 114 80 19 257 153 140 141 121 110 108 113 115 115 120 123 124 128 130 125 120 115 107 102 100 98 96 93 87 82 75 67 61 57 53 50 45 39
46 65 183 243 260 235 248 261 228 268 229 167 148 174 129 346 112 138 136 128 119 114 116 114 116 126 135 139 136 131 127 124 119 117 110 101 101 102 97 89 85 78 67 61 57 52 51 46 40
38 100 53 246 259 262 269 259 268 254 242 146 106 135 171 162 144 146 135 130 126 127 127 126 141 153 150 143 138 134 128 122 118 116 114 104 97 96 89 81 80 75 62 60 53 54 42 38 35
143 109 226 242 272 296 259 360 278 291 162 175 133 131 110 168 158 143 134 124 125 126 128 120 141 154 147 144 143 139 134 129 126 120 111 103 94 91 86 78 70 73 59 56 58 44 40 36 30
129 124 250 229 264 277 257 313 306 295 16 98 151 169 185 183 152 141 131 130 125 119 109 112 95 82 93 132 141 137 132 130 125 115 110 107 95 92 83 76 70 67 61 57 56 43 39 35 31
143 68 253 246 186 261 289 309 67 346 125 28 3 149 184 154 147 146 142 145 148 142 141 134 137 146 150 144 150 135 131 129 126 115 100 85 82 80 68 79 71 64 59 54 46 43 38 34 28
143 202 237 199 212 266 282 243 183 144 211 288 14 51 136 154 159 163 171 168 171 172 170 165 159 162 159 157 116 103 101 91 81 81 79 69 72 79 77 71 67 63 56 53 45 40 34 28 18
205 223 235 241 244 253 269 287 247 193 237 213 189 155 153 161 170 176 185 181 180 174 171 171 163 161 163 131 126 115 111 102 93 97 93 83 78 65 63 60 51 46 52 39 37 29 29 21 21
259 248 243 251 246 263 241 266 251 178 219 214 163 167 157 173 182 182 184 183 180 174 174 167 159 160 165 135 134 140 130 123 111 112 111 107 95 88 72 66 59 54 36 43 34 27 18 23 18
232 252 252 229 257 257 283 255 238 229 261 128 139 162 180 182 184 186 182 180 177 178 173 169 159 168 161 141 137 122 110 113 120 112 109 110 104 99 96 79 61 62 57 41 33 29 25 21 13
235 277 279 276 250 241 245 267 140 237 122 137 157 176 182 192 188 175 188 187 185 178 173 169 171 168 151 137 132 121 117 120 100 98 109 110 116 110 95 79 76 65 56 45 46 47 34 35 18
259 271 286 261 267 241 185 279 231 211 162 167 183 181 183 193 191 200 191 191 182 177 168 171 166 156 150 141 138 136 139 115 110 110 106 105 109 104 100 99 84 70 53 49 33 41 48 52 37
291 252 268 235 215 264 167 256 259 172 164 194 189 187 189 197 201 200 194 190 184 169 169 166 164 156 144 143 136 132 129 112 100 96 88 94 104 99 95 97 92 80 61 44 27 8 33 41 41
220 259 255 287 208 243 194 260 264 172 191 200 201 198 197 197 205 204 194 189 183 172 165 162 153 155 146 139 131 129 128 120 119 105 93 96 98 104 103 103 102 91 75 56 43 41 57 36 31
243 253 264 245 286 223 280 269 281 236 194 213 203 205 204 198 209 199 191 184 178 173 167 157 156 151 143 136 129 116 107 107 120 128 129 122 119 115 110 100 105 110 107 74 59 70 39 54 51
259 257 255 279 286 306 275 275 264 275 202 223 220 209 210 207 208 187 183 177 173 175 171 165 154 157 147 147 142 137 140 133 109 111 117 108 112 114 111 118 118 117 83 74 52 77 51 36 10
234 250 262 272 266 274 278 273 243 247 256 202 215 214 213 217 190 183 176 176 181 176 172 167 164 160 158 155 149 130 136 113 111 121 110 123 122 120 124 130 128 122 108 78 59 50 94 64 10
239 238 251 260 283 274 306 285 274 243 242 245 220 214 211 205 194 183 179 185 176 179 176 170 167 165 160 150 125 106 91 88 104 138 109 115 121 125 128 125 118 110 103 94 80 67 71 118 23
255 228 246 263 265 268 169 284 268 245 232 221 222 209 216 209 192 186 183 182 186 183 173 169 165 164 158 153 146 157 158 158 157 145 137 132 132 131 123 118 117 123 127 114 108 87 81 118 117
252 202 241 247 267 288 255 255 276 191 237 233 238 223 219 201 188 185 187 189 186 172 172 167 170 168 164 163 162 159 156 125 130 130 137 129 128 129 119 125 126 116 108 112 110 95 85 55 103
231 197 243 249 216 243 233 213 273 190 227 227 230 242 225 203 196 191 184 165 172 170 172 168 168 171 164 161 159 160 151 141 142 145 146 145 134 126 127 125 119 121 120 113 103 105 99 95 81
186 129 236 248 193 245 160 195 238 328 353 194 264 248 248 217 187 179 170 174 171 173 174 167 163 164 160 165 159 158 154 154 153 156 158 155 152 135 145 133 131 125 117 103 106 96 86 82 91
219 186 201 222 209 238 171 231 247 27 39 31 17 344 343 268 196 185 179 175 172 169 167 164 162 162 162 160 166 164 159 160 158 158 155 159 154 148 143 131 119 126 108 102 101 94 93 99 84
202 206 230 272 217 24 238 284 333 37 40 27 22 27 6 358 68 138 156 169 168 166 166 159 160 158 166 172 164 169 169 159 159 153 146 149 134 130 134 121 126 113 102 101 94 91 102 83 85
203 150 124 197 210 229 232 232 220 5 22 12 29 20 34 42 50 84 132 148 162 165 163 163 172 169 173 176 163 168 164 152 150 147 146 146 140 129 131 129 123 110 108 112 107 110 98 101 87
112 175 102 115 204 202 199 239 132 97 2 37 16 21 13 17 351 140 150 154 162 161 170 163 161 167 163 160 160 159 160 152 148 148 147 143 137 146 137 135 128 125 131 123 118 107 104 104 102
78 129 163 234 182 229 185 215 147 132 44 39 32 3 337 353 89 56 68 101 154 172 167 177 182 166 159 160 157 159 149 149 145 147 140 140 138 139 145 127 135 138 132 125 123 122 120 118 110